Location: ???
(35.5616°N, 139.7977°E)
Time: 18:52:09
(UTC+00:00)

Cosmos 1603 - Pass Details

Date: 17 November 2025
Orbit: 830 x 858 km, 71.0° (Epoch: 08 December)

Event Time Altitude Azimuth Distance (km) Brightness Sun altitude
Rises 20:10:44 0° 193° (SSW) 3,413 6.9 -14.0°
Reaches altitude 10° 20:13:11 10° 191° (S) 2,481 6.2 -13.5°
Maximum altitude 20:18:51 70° 109° (ESE) 909 4.1 -12.4°
Drops below altitude 10° 20:24:34 10° 26° (NNE) 2,494 6.3 -11.3°
Sets 20:27:02 0° 24° (NNE) 3,431 7.0 -10.8°
